sat.trackr.live / text

‹ back to catalog

STARLINK-32093

NORAD 59701 · 2024-086V

PAYLOAD ACTIVE UNKNOWN

§ Identity

Operator
Country
US
Launch date
2024-05-08
Launch site
AFETR
Launch vehicle
Mass (kg)
RCS (m²)

Purposes: comms

External: N2YO · Heavens-Above · Gunter

§ Orbital elements

Epoch: 2026-05-24T22:41:15.890784Z

Period
94.27 min
Inclination
43.0024°
Eccentricity
0.0000862
Mean motion
15.27578837 rev/d
Perigee alt
482.5 km
Apogee alt
483.6 km
Semi-major
6,861.2 km
B*
4.4442e-5
RAAN
349.3138°
Arg perigee
289.2856°
Mean anomaly
70.7902°
Rev number
11,577

§ Raw data

STARLINK-320931 59701U 24086V   26144.94532281  .00000961  00000+0  44442-4 0  99902 59701  43.0024 349.3138 0000862 289.2856  70.7902 15.27578837115773

JSON: /api/v1/satellites/59701 · /tle

For live sub-satellite position, see the globe view (requires WebGL).

§ Visibility from observer

Set your observer location to see the next 7 days of passes ≥ 10°. The values pass through the URL so the page stays shareable.

No JS? Fill the form by hand. The geolocation button needs JavaScript.